DW7251 Weather Reports


Display with metric or nautical units.
time (UTC)temp
F
wind
direction
speed
MPH
gust
MPH
rain 1hr
in
rain 24hr
in
rain mn
in
humidity
%
barometer
mb
20260904235949 58 340 3.0 13.0 0.00 0.39 0.36 93 1003.1
20260904235449 58 9 4.0 13.0 0.00 0.39 0.36 93 1003.1
20260904234943 58 336 4.0 13.0 0.00 0.39 0.36 93 1003.2
20260904234431 58 6 3.0 13.0 0.00 0.39 0.36 93 1003.3
20260904233927 57 319 3.0 10.0 0.00 0.39 0.36 93 1003.2
20260904233431 57 297 3.0 10.0 0.00 0.39 0.36 93 1003.3
20260904232922 57 352 4.0 13.0 0.00 0.39 0.36 93 1003.4
20260904231804 57 341 3.0 14.0 0.00 0.39 0.36 94 1003.5
20260904231310 57 79 3.0 14.0 0.00 0.39 0.36 94 1003.5
20260904230148 56 0 3.0 9.0 0.00 0.39 0.36 94 1003.6
20260904225657 56 12 3.0 9.0 0.00 0.39 0.36 94 1003.5
20260904225134 56 315 3.0 9.0 0.00 0.39 0.36 94 1003.5
20260904224018 56 334 2.0 11.0 0.00 0.39 0.36 94 1003.6
20260904223528 56 324 3.0 11.0 0.00 0.39 0.36 94 1003.5
20260904223019 56 58 3.0 11.0 0.00 0.39 0.36 94 1003.5
20260904222511 56 34 3.0 11.0 0.00 0.39 0.36 94 1003.9
20260904222002 56 4 2.0 9.0 0.00 0.39 0.36 94 1003.6
20260904221507 56 322 2.0 10.0 0.00 0.39 0.36 94 1003.8
20260904220949 56 47 3.0 10.0 0.00 0.39 0.36 94 1004.0
20260904215800 56 311 3.0 13.0 0.00 0.39 0.36 94 1003.9
20260904214639 55 331 4.0 11.0 0.00 0.39 0.36 94 1003.9
20260904214126 55 38 4.0 14.0 0.00 0.39 0.36 94 1003.8
20260904213614 55 34 3.0 14.0 0.00 0.39 0.36 94 1003.8
20260904213120 55 58 4.0 16.0 0.00 0.39 0.36 94 1003.6
20260904211954 55 42 6.0 16.0 0.06 0.39 0.36 93 1003.5
20260904211455 55 322 6.0 16.0 0.07 0.39 0.36 93 1003.6
20260904210943 56 3 5.0 15.0 0.14 0.38 0.35 93 1003.6
20260904210428 56 10 6.0 15.0 0.07 0.37 0.34 93 1003.8
20260904205913 56 335 6.0 15.0 0.00 0.37 0.33 93 1004.2
20260904205412 56 56 5.0 15.0 0.00 0.36 0.33 93 1004.2
20260904204859 56 339 5.0 15.0 0.03 0.36 0.33 92 1004.8
20260904204343 56 14 5.0 15.0 0.07 0.36 0.33 92 1004.7
20260904203836 56 32 6.0 15.0 0.20 0.36 0.33 92 1004.7
20260904203327 56 23 6.0 14.0 0.11 0.34 0.31 92 1005.0
20260904202824 56 28 5.0 13.0 0.17 0.33 0.30 92 1005.0
20260904202333 56 316 5.0 14.0 0.03 0.32 0.29 93 1005.0
20260904201836 56 13 4.0 14.0 0.03 0.31 0.28 93 1005.0
20260904201341 56 344 4.0 14.0 0.04 0.31 0.28 93 1005.0
20260904200825 57 42 5.0 14.0 0.11 0.31 0.28 93 1004.8
20260904200309 57 12 4.0 12.0 0.09 0.30 0.27 93 1005.0
20260904195757 56 343 3.0 12.0 0.00 0.29 0.25 93 1004.9
20260904195257 56 347 3.0 12.0 0.00 0.29 0.25 93 1004.8
20260904194144 56 350 3.0 14.0 0.00 0.29 0.25 93 1004.7
20260904193638 56 37 3.0 14.0 0.00 0.29 0.25 93 1004.8
20260904193127 56 48 4.0 14.0 0.00 0.29 0.25 93 1004.9
20260904192621 56 312 5.0 14.0 0.00 0.29 0.25 93 1005.2
20260904192115 56 46 4.0 13.0 0.00 0.29 0.25 93 1005.2
20260904191624 56 57 5.0 13.0 0.00 0.29 0.25 93 1005.4
20260904185242 56 42 4.0 15.0 0.00 0.29 0.25 92 1005.5
20260904184114 56 0 5.0 15.0 0.03 0.29 0.25 92 1005.6
20260904183603 56 353 6.0 15.0 0.07 0.29 0.25 92 1005.6
20260904183103 56 87 5.0 16.0 0.08 0.28 0.25 91 1005.6
20260904182611 56 38 5.0 16.0 0.14 0.28 0.25 90 1005.5
20260904182115 57 20 5.0 16.0 0.28 0.25 0.24 89 1005.8
20260904181559 58 339 6.0 16.0 0.37 0.23 0.21 84 1005.8
20260904181051 58 344 5.0 15.0 0.00 0.21 0.18 84 1006.1
20260904180548 58 340 4.0 15.0 0.00 0.21 0.18 84 1005.8
20260904180046 58 39 5.0 15.0 0.00 0.21 0.18 84 1005.4
20260904174923 58 338 6.0 15.0 0.00 0.21 0.18 85 1005.1
20260904174427 58 353 6.0 15.0 0.00 0.21 0.18 85 1005.1
20260904173932 58 11 6.0 15.0 0.00 0.21 0.18 86 1005.1
20260904173433 58 2 6.0 14.0 0.03 0.21 0.18 86 1005.2
20260904172921 58 358 6.0 14.0 0.06 0.21 0.18 86 1005.7
20260904172407 58 358 6.0 14.0 0.06 0.21 0.18 86 1005.7
20260904171901 58 227 6.0 15.0 0.06 0.20 0.17 86 1005.8
20260904170716 58 18 8.0 18.0 0.00 0.18 0.15 85 1006.1
20260904170220 58 291 8.0 18.0 0.00 0.18 0.15 85 1006.1
20260904165708 58 77 7.0 21.0 0.00 0.18 0.14 85 1006.4
20260904165201 58 78 8.0 21.0 0.00 0.18 0.14 85 1006.5
20260904164648 58 46 7.0 21.0 0.03 0.18 0.14 85 1006.7
20260904164151 58 21 7.0 21.0 0.03 0.18 0.14 85 1006.8
20260904163645 58 160 9.0 21.0 0.04 0.18 0.14 85 1006.9
20260904162503 58 338 8.0 18.0 0.07 0.17 0.14 85 1006.9
20260904161354 58 72 9.0 20.0 0.03 0.16 0.13 85 1007.3
20260904160856 58 3 8.0 20.0 0.06 0.15 0.12 84 1007.3
20260904160352 58 298 8.0 20.0 0.06 0.15 0.12 84 1007.5
20260904155844 58 342 8.0 18.0 0.08 0.14 0.11 84 1007.6
20260904155353 59 9 8.0 17.0 0.11 0.14 0.11 83 1007.9
20260904154846 59 330 8.0 23.0 0.08 0.13 0.10 83 1008.2
20260904154346 59 33 7.0 23.0 0.00 0.12 0.09 82 1008.3
20260904153836 59 343 7.0 23.0 0.00 0.11 0.08 82 1008.5
20260904153329 59 345 8.0 23.0 0.00 0.11 0.08 82 1008.3
20260904152834 59 333 7.0 23.0 0.00 0.11 0.08 83 1008.3
20260904152342 59 321 5.0 23.0 0.03 0.11 0.08 83 1008.4
20260904151845 59 37 6.0 23.0 0.03 0.11 0.08 83 1008.8
20260904151327 59 340 7.0 23.0 0.03 0.11 0.08 83 1009.0
20260904150155 58 286 8.0 16.0 0.00 0.10 0.07 84 1009.0
20260904145650 58 343 6.0 16.0 0.00 0.10 0.07 85 1008.9
20260904144535 58 61 5.0 12.0 0.00 0.10 0.07 85 1009.1
20260904144014 57 5 5.0 14.0 0.03 0.10 0.07 85 1009.2
20260904143459 57 5 5.0 14.0 0.03 0.10 0.07 85 1009.2
20260904143001 57 37 5.0 19.0 0.04 0.10 0.07 85 1009.2
20260904142446 58 344 5.0 19.0 0.10 0.10 0.07 85 1009.3
20260904141935 58 52 6.0 19.0 0.06 0.03 0.03 83 1009.6
20260904141427 58 52 6.0 19.0 0.06 0.03 0.03 83 1009.6
20260904140235 60 61 6.0 12.0 0.13 0.03 0.00 80 1009.6
20260904135745 60 351 5.0 12.0 0.00 0.03 0.03 80 1009.8
20260904134622 60 342 6.0 18.0 0.00 0.03 0.03 79 1010.1
20260904134103 60 314 7.0 18.0 0.00 0.03 0.03 79 1010.2
20260904133609 60 303 7.0 18.0 0.00 0.03 0.03 78 1010.2
20260904133117 60 159 7.0 18.0 0.00 0.03 0.03 78 1010.2
20260904132624 60 306 7.0 18.0 0.00 0.03 0.03 79 1010.1
20260904132111 60 15 6.0 18.0 0.00 0.03 0.03 79 1010.2
20260904131612 60 16 6.0 18.0 0.00 0.03 0.03 79 1010.2
20260904131111 60 5 6.0 17.0 0.00 0.03 0.03 80 1010.3
20260904130612 60 314 5.0 12.0 0.00 0.03 0.03 81 1010.3
20260904130106 59 328 4.0 12.0 0.00 0.03 0.03 83 1010.4
20260904125554 58 344 3.0 12.0 0.00 0.03 0.03 85 1010.2
20260904125036 58 312 2.0 10.0 0.00 0.03 0.03 85 1010.5
20260904124534 58 338 1.0 10.0 0.00 0.03 0.03 85 1010.6
20260904124018 57 28 2.0 10.0 0.00 0.03 0.03 84 1010.7
20260904123504 57 313 1.0 10.0 0.00 0.03 0.03 84 1010.6
20260904122958 57 37 1.0 7.0 0.00 0.03 0.03 84 1010.7
20260904122507 57 13 1.0 6.0 0.00 0.02 0.02 84 1010.7
20260904121340 57 31 1.0 7.0 0.03 0.02 0.02 83 1011.0
20260904120844 58 40 1.0 7.0 0.05 0.02 0.02 82 1010.9
20260904120353 58 37 1.0 9.0 0.05 0.02 0.02 81 1011.0
20260904115850 58 28 1.0 9.0 0.00 0.01 0.01 81 1011.3
20260904115350 58 32 2.0 9.0 0.00 0.00 0.00 79 1011.7
20260904114840 58 32 2.0 9.0 0.00 0.00 0.00 79 1011.7
20260904114331 59 253 2.0 9.0 0.00 0.00 0.00 79 1011.8
20260904113828 59 16 2.0 7.0 0.00 0.00 0.00 79 1011.9
20260904112658 58 2 1.0 5.0 0.00 0.00 0.00 79 1012.1
20260904112157 58 37 0.0 5.0 0.00 0.00 0.00 80 1012.1
20260904111648 58 272 0.0 4.0 0.00 0.00 0.00 79 1012.3
20260904111140 58 346 0.0 2.0 0.00 0.00 0.00 79 1012.3
20260904110648 58 35 0.0 2.0 0.00 0.00 0.00 79 1012.4
20260904110147 58 356 0.0 2.0 0.00 0.00 0.00 78 1012.4
20260904105645 58 323 0.0 0.0 0.00 0.00 0.00 78 1012.6
20260904105130 58 42 0.0 3.0 0.00 0.00 0.00 78 1012.6
20260904104614 59 12 1.0 12.0 0.00 0.00 0.00 77 1012.6
20260904104055 59 279 2.0 12.0 0.00 0.00 0.00 77 1012.7
20260904103548 59 11 3.0 12.0 0.00 0.00 0.00 76 1012.7
20260904103035 59 340 4.0 12.0 0.00 0.00 0.00 75 1012.7
20260904102521 59 335 3.0 9.0 0.00 0.00 0.00 75 1012.8
20260904101400 59 343 4.0 10.0 0.00 0.00 0.00 74 1012.6
20260904100848 59 28 4.0 11.0 0.00 0.00 0.00 74 1012.7
20260904100355 59 331 4.0 11.0 0.00 0.00 0.00 73 1012.7
20260904095859 59 300 4.0 11.0 0.00 0.00 0.00 73 1012.6
20260904095339 59 267 4.0 11.0 0.00 0.00 0.00 72 1012.5
20260904094835 59 304 3.0 12.0 0.00 0.00 0.00 72 1012.7
20260904094326 59 25 4.0 12.0 0.00 0.00 0.00 72 1012.7
20260904093202 59 348 2.0 12.0 0.00 0.00 0.00 73 1012.8
20260904092651 59 32 1.0 5.0 0.00 0.00 0.00 72 1012.7
20260904092146 59 293 1.0 5.0 0.00 0.00 0.00 71 1012.9
20260904091628 59 356 1.0 7.0 0.00 0.00 0.00 71 1013.0
20260904091109 58 305 1.0 9.0 0.00 0.00 0.00 71 1013.0
20260904090600 58 343 1.0 9.0 0.00 0.00 0.00 71 1012.9
20260904090043 58 325 3.0 9.0 0.00 0.00 0.00 70 1012.9
20260904085538 58 18 3.0 9.0 0.00 0.00 0.00 70 1013.0
20260904085040 58 297 3.0 9.0 0.00 0.00 0.00 70 1013.1
20260904084527 58 1 3.0 11.0 0.00 0.00 0.00 70 1012.8
20260904084021 58 323 2.0 11.0 0.00 0.00 0.00 70 1012.8
20260904083522 58 341 3.0 11.0 0.00 0.00 0.00 70 1012.8
20260904083008 59 322 4.0 11.0 0.00 0.00 0.00 69 1012.9
20260904082503 59 304 4.0 11.0 0.00 0.00 0.00 69 1013.1
20260904081957 59 8 4.0 11.0 0.00 0.00 0.00 69 1013.0
20260904081441 59 345 3.0 10.0 0.00 0.00 0.00 69 1013.1
20260904080320 59 44 3.0 13.0 0.00 0.00 0.00 68 1013.1
20260904075802 60 37 4.0 14.0 0.00 0.00 0.00 68 1013.3
20260904074024 60 253 4.0 14.0 0.00 0.00 0.00 67 1013.6
20260904073533 60 238 4.0 14.0 0.00 0.00 0.00 66 1013.6
20260904073034 60 32 3.0 16.0 0.00 0.00 0.00 66 1013.7
20260904071904 60 346 5.0 16.0 0.00 0.00 0.00 65 1013.5
20260904071414 61 30 5.0 16.0 0.00 0.00 0.00 65 1013.5
20260904070923 61 16 5.0 15.0 0.00 0.00 0.00 65 1013.6
20260904070408 61 60 5.0 14.0 0.00 0.00 0.00 65 1013.6
20260904065900 61 38 5.0 11.0 0.00 0.00 0.00 64 1013.5
20260904065344 61 312 5.0 11.0 0.00 0.00 0.00 64 1013.6
20260904064834 62 299 4.0 15.0 0.00 0.00 0.00 63 1013.6
20260904064315 62 325 4.0 15.0 0.00 0.00 0.00 63 1013.6
20260904063817 62 314 5.0 15.0 0.00 0.00 0.00 63 1013.7
20260904063304 62 64 3.0 15.0 0.00 0.00 0.00 63 1013.8
20260904062805 62 34 4.0 13.0 0.00 0.00 0.00 63 1013.9
20260904060338 62 316 4.0 12.0 0.00 0.00 0.00 62 1014.3
20260904055822 62 299 4.0 12.0 0.00 0.00 0.00 62 1014.4
20260904055313 62 338 3.0 12.0 0.00 0.00 0.00 62 1014.5
20260904054804 62 300 3.0 11.0 0.00 0.00 0.00 62 1014.5
20260904054254 62 20 3.0 11.0 0.00 0.00 0.00 61 1014.6
20260904053739 62 49 4.0 11.0 0.00 0.00 0.00 61 1014.6
20260904053238 63 314 4.0 11.0 0.00 0.00 0.00 61 1014.5
20260904052723 63 272 4.0 11.0 0.00 0.00 0.00 61 1014.7
20260904052210 63 338 4.0 11.0 0.00 0.00 0.00 61 1014.7
20260904051655 64 344 3.0 11.0 0.00 0.00 0.00 59 1014.7
20260904051125 64 314 3.0 11.0 0.00 0.00 0.00 59 1014.7
20260904050021 64 295 2.0 8.0 0.00 0.00 0.00 60 1014.6
20260904045514 64 277 1.0 7.0 0.00 0.00 0.00 60 1014.6
20260904045005 64 341 2.0 7.0 0.00 0.00 0.00 59 1014.7
20260904044459 64 281 2.0 7.0 0.00 0.00 0.00 59 1014.9
20260904043347 64 295 1.0 7.0 0.00 0.00 0.00 59 1014.9
20260904042224 63 312 1.0 3.0 0.00 0.00 0.00 63 1014.8
20260904041708 63 286 1.0 4.0 0.00 0.00 0.00 63 1014.8
20260904041148 64 282 1.0 4.0 0.00 0.00 0.00 60 1014.7
20260904040642 64 315 1.0 5.0 0.00 0.00 0.00 59 1014.8
20260904040148 63 279 1.0 5.0 0.00 0.00 0.00 57 1014.8
20260904035639 64 317 1.0 5.0 0.00 0.00 0.00 57 1014.9
20260904033825 62 358 3.0 10.0 0.00 0.00 0.00 58 1015.4
20260904033326 62 276 2.0 10.0 0.00 0.00 0.00 59 1015.4
20260904032215 61 23 2.0 7.0 0.00 0.00 0.00 60 1015.5
20260904031031 61 320 1.0 5.0 0.00 0.00 0.00 64 1015.8
20260904030534 61 308 1.0 5.0 0.00 0.00 0.00 64 1015.9
20260904030031 61 291 1.0 6.0 0.00 0.00 0.00 60 1016.1
20260904025532 62 307 1.0 6.0 0.00 0.00 0.00 59 1016.2
20260904025015 62 328 2.0 7.0 0.00 0.00 0.00 58 1016.3
20260904024509 61 300 2.0 7.0 0.00 0.00 0.00 59 1016.2
20260904023331 60 308 3.0 11.0 0.00 0.00 0.00 59 1016.4
20260904022836 60 293 3.0 11.0 0.00 0.00 0.00 57 1016.6
20260904022336 61 277 3.0 9.0 0.00 0.00 0.00 57 1016.6
20260904021839 61 272 3.0 9.0 0.00 0.00 0.00 59 1016.7
20260904021320 61 294 2.0 11.0 0.00 0.00 0.00 58 1016.9
20260904020800 60 292 2.0 11.0 0.00 0.00 0.00 59 1016.9
20260904020247 60 254 3.0 11.0 0.00 0.00 0.00 58 1017.0
20260904015736 60 291 3.0 11.0 0.00 0.00 0.00 59 1017.1
20260904015231 60 278 2.0 10.0 0.00 0.00 0.00 59 1017.2
20260904014730 60 277 2.0 10.0 0.00 0.00 0.00 58 1017.1
20260904014221 60 275 3.0 10.0 0.00 0.00 0.00 56 1017.3
20260904013723 60 250 3.0 9.0 0.00 0.00 0.00 57 1017.3
20260904013227 60 262 2.0 9.0 0.00 0.00 0.00 57 1017.4
20260904012724 60 268 2.0 9.0 0.00 0.01 0.00 57 1017.5
20260904012208 60 287 2.0 10.0 0.00 0.02 0.00 57 1017.4
20260904011654 60 49 2.0 10.0 0.00 0.02 0.00 54 1017.5
20260904011200 60 305 2.0 10.0 0.00 0.02 0.00 55 1017.5
20260904010702 60 2 2.0 10.0 0.00 0.02 0.00 55 1017.6
20260904010148 60 278 1.0 7.0 0.00 0.02 0.00 57 1017.8
20260904005648 59 253 1.0 11.0 0.00 0.02 0.00 57 1018.0
20260904005135 59 287 2.0 11.0 0.00 0.02 0.00 57 1018.2
20260904004018 58 257 4.0 11.0 0.00 0.02 0.00 57 1018.4
20260904003509 58 293 4.0 11.0 0.00 0.02 0.00 60 1018.4
20260904003015 58 282 3.0 11.0 0.00 0.02 0.00 58 1018.6
20260904001902 58 289 2.0 8.0 0.00 0.02 0.00 58 1018.6
20260904001403 58 283 2.0 11.0 0.00 0.02 0.00 59 1018.6
20260904000849 58 266 2.0 11.0 0.00 0.02 0.00 59 1018.7
20260904000355 58 306 2.0 11.0 0.00 0.03 0.00 59 1018.7